Wind_Speed
26 27 20 18 19 17 17 19 26 25 24 27 24 21 21 18 21 21 20 21 18 14 20 18 14 12 10 9 10 9 10 10 10 9 9 6 6 8 6 5 3 2 2 1 0 2 2 7 3 3 6 8 11 14
25 29 24 21 20 20 19 17 28 27 28 27 32 26 18 19 21 21 19 19 20 15 20 18 15 10 7 8 8 9 7 11 10 10 8 7 7 8 8 6 4 3 2 1 1 3 7 9 6 5 6 8 10 11
30 30 22 18 21 21 23 23 23 32 36 29 32 29 19 20 19 19 19 19 20 17 17 17 14 10 9 9 8 7 8 8 9 10 9 7 5 8 7 6 6 4 5 4 4 3 6 5 5 6 7 8 11 14
31 29 23 21 21 24 25 25 23 28 28 23 22 21 20 19 20 20 19 20 20 21 14 16 14 13 12 10 8 7 6 6 7 7 8 7 8 7 8 8 9 7 6 6 6 5 3 3 7 9 11 12 11 12
28 24 26 23 25 25 21 22 27 20 29 22 20 23 22 22 21 20 20 20 18 17 15 17 15 14 12 10 9 8 6 5 6 6 6 7 8 7 8 10 11 11 10 7 5 4 3 5 8 11 13 15 16 15
29 33 27 23 24 27 25 24 24 21 23 25 18 17 21 22 22 21 19 18 18 12 18 18 15 14 11 9 7 7 7 6 6 5 5 5 6 5 5 4 6 8 8 8 6 5 6 8 10 13 16 16 16 16
30 38 32 28 27 22 21 24 23 22 26 25 25 18 20 21 22 21 18 17 17 15 16 15 15 16 13 9 7 5 5 4 4 4 5 6 6 6 9 11 7 6 8 8 8 8 8 9 11 15 16 15 15 16
36 36 31 28 24 21 21 21 22 22 24 27 30 20 21 22 22 20 16 11 14 15 15 9 11 18 16 14 9 6 4 4 4 3 3 4 5 5 4 3 6 8 9 8 6 6 7 11 14 15 15 15 14 15
36 32 29 26 27 23 23 24 24 24 24 24 27 24 21 18 18 17 18 17 17 16 12 11 14 17 20 15 12 7 5 3 2 3 3 3 5 4 4 2 4 4 3 4 5 8 12 13 14 14 13 13 14 15
23 30 28 25 29 26 28 26 24 23 24 22 21 21 21 19 18 18 15 17 19 20 15 9 15 13 20 18 10 7 5 4 2 4 3 6 8 5 6 7 7 5 6 7 8 10 11 12 12 11 11 12 13 14
33 32 26 28 30 31 31 28 25 23 21 21 22 21 20 18 16 14 10 11 10 10 13 13 17 14 18 15 12 7 4 4 3 3 3 4 3 4 2 3 5 6 6 7 8 9 9 9 10 9 10 11 12 13
28 31 29 33 33 34 31 27 24 20 18 18 17 19 21 17 8 6 10 9 8 9 13 17 18 17 19 16 7 6 4 4 3 5 4 4 2 4 4 4 5 5 6 7 7 7 8 7 8 8 8 10 12 14
33 34 31 31 33 32 31 26 24 19 17 15 20 16 13 6 6 7 9 8 7 11 16 23 22 22 19 10 6 5 4 4 4 4 4 5 5 4 4 3 4 5 5 6 6 6 5 4 4 6 7 9 12 14
24 28 35 33 36 37 34 28 23 20 18 15 10 9 4 5 6 6 12 14 12 14 19 24 24 17 16 11 5 4 5 4 4 5 6 5 4 4 5 4 4 5 5 6 5 2 1 2 3 5 7 10 13 14
26 26 29 36 35 29 26 24 23 21 19 11 6 5 7 6 11 10 16 17 13 17 21 26 24 15 16 6 7 5 5 4 5 2 1 2 2 2 3 4 5 6 6 4 2 2 2 1 1 4 8 10 11 12
31 31 29 35 30 26 23 21 20 19 17 8 4 5 10 11 11 10 13 18 15 18 22 19 15 8 8 6 7 8 5 5 3 1 1 2 3 4 4 5 7 7 5 4 4 3 3 3 1 5 7 9 10 11
29 35 31 31 33 27 25 22 21 19 12 6 6 6 11 11 10 9 10 16 19 18 25 11 9 9 7 8 9 11 18 10 5 7 8 10 10 8 8 8 9 6 6 5 5 4 6 2 2 5 7 8 9 10
25 29 31 30 24 31 28 26 23 12 10 9 10 6 8 12 5 8 11 13 18 24 23 13 11 12 7 7 2 2 7 11 9 8 9 9 9 9 10 10 8 8 8 7 6 8 6 4 5 6 8 8 8 9
25 30 26 26 26 34 31 26 22 8 8 9 10 14 8 9 8 7 8 11 13 20 29 22 11 18 22 15 10 8 6 6 9 10 10 10 9 9 10 9 9 10 9 8 10 9 6 7 8 9 9 9 8 8
23 28 29 24 27 28 19 15 18 8 4 5 9 16 20 15 12 14 11 6 9 17 20 29 30 23 9 6 10 17 20 19 18 17 14 12 12 12 12 11 13 13 11 11 11 10 9 10 10 11 11 11 10 9
20 25 27 24 22 23 10 14 13 10 9 7 8 8 15 21 17 9 6 3 6 11 23 23 24 22 22 20 15 11 10 10 9 9 10 12 14 15 15 15 14 13 13 14 14 13 12 13 13 13 13 13 12 11
15 22 24 18 16 15 9 9 8 7 8 6 7 11 14 20 21 15 11 13 10 10 13 18 19 22 23 26 28 24 21 18 17 16 16 16 15 12 13 15 15 15 16 17 16 15 15 14 15 15 15 15 15 14
13 21 20 17 11 7 7 8 9 9 7 8 6 9 13 16 17 16 16 13 11 12 14 16 16 18 22 24 24 22 21 20 19 18 18 17 15 15 16 17 18 19 19 18 18 17 16 16 17 17 17 17 17 17
12 21 19 12 8 6 7 5 8 10 11 9 7 7 10 12 13 15 17 15 14 13 15 17 18 19 19 20 20 20 19 19 18 18 17 17 16 17 19 19 20 20 20 21 20 19 18 18 19 19 19 19 19 20
8 9 11 10 11 7 10 7 7 7 8 6 6 5 5 9 11 13 13 11 11 13 16 17 18 19 19 19 20 18 17 18 18 19 19 19 18 20 21 22 22 22 22 21 20 21 22 23 22 22 22 22 23 23
5 4 7 8 11 8 7 5 4 2 5 8 7 5 6 9 10 7 8 6 9 12 14 14 14 15 16 17 18 20 21 21 22 23 23 23 21 21 22 24 25 24 23 23 25 25 26 26 26 26 26 26 27 26
5 2 8 7 5 7 6 7 8 7 5 3 6 8 6 5 5 5 4 5 5 5 6 8 11 12 14 16 18 20 22 23 24 25 25 25 24 23 24 26 27 29 30 30 29 28 28 28 28 28 29 30 29 29
7 10 7 4 5 5 10 12 9 5 3 4 6 5 4 4 3 3 2 0 3 5 6 8 8 10 13 17 19 21 22 24 25 24 24 25 25 24 24 24 26 28 28 29 28 28 28 29 29 30 30 30 31 31
11 10 11 13 13 10 11 9 6 7 11 11 11 8 7 7 8 10 11 12 12 12 12 11 11 11 12 13 16 19 20 20 21 21 23 25 25 27 28 28 28 29 30 30 31 31 31 31 31 30 30 30 30 30
17 16 18 18 18 18 17 17 19 18 18 18 16 16 16 16 17 16 16 16 16 16 15 14 14 14 14 14 15 16 17 19 20 21 23 24 26 26 26 27 28 29 30 31 31 31 31 30 30 29 29 29 29 29
23 21 20 19 21 21 23 24 24 24 23 20 18 19 19 19 17 16 16 16 16 15 15 15 15 15 15 15 15 15 15 17 20 22 24 25 26 26 26 27 28 29 29 30 30 31 30 29 28 28 28 27 26 27
20 22 22 23 22 19 16 15 15 16 16 17 18 17 17 18 20 20 19 18 16 16 16 16 16 15 16 16 16 17 17 17 18 20 21 23 24 25 26 27 27 27 27 27 28 29 29 27 26 26 25 25 24 24
13 14 14 14 12 10 8 9 8 9 11 13 15 17 18 18 20 20 18 17 17 16 16 16 16 17 17 17 17 17 18 19 20 21 22 23 24 25 25 26 27 27 26 25 24 23 23 22 22 22 22 21 21 21
Wind_Direction
194 192 189 183 184 191 195 203 195 174 176 180 166 165 167 183 178 176 178 176 167 166 164 168 173 184 189 187 194 179 180 180 176 176 178 174 174 182 185 177 208 168 172 180 263 246 230 335 336 283 306 316 320 322
186 186 185 180 188 192 201 190 190 181 177 175 182 179 185 178 176 176 175 176 176 165 168 174 181 186 188 183 177 171 172 177 179 179 182 183 169 176 186 191 198 214 218 203 228 250 297 333 349 355 345 334 323 322
189 185 187 185 196 203 200 192 198 197 195 195 196 187 183 177 172 173 177 178 168 166 161 178 187 186 180 172 169 171 171 177 185 190 183 185 178 189 188 203 214 239 279 263 295 292 311 339 3 9 5 351 336 330
178 189 190 192 183 187 185 174 177 182 175 163 173 177 175 170 173 173 168 170 168 166 161 167 172 176 181 180 176 172 167 173 177 186 194 195 194 209 215 225 230 249 274 266 277 297 316 357 354 356 349 345 346 348
181 178 181 180 179 184 181 179 170 167 160 155 163 171 173 175 171 171 167 173 163 170 170 161 166 178 185 192 198 194 190 179 193 193 200 206 218 233 245 249 251 250 258 239 266 298 316 337 336 341 345 340 338 335
172 182 176 166 173 180 183 188 190 193 180 164 155 167 172 173 169 164 164 163 166 163 162 154 167 175 186 194 199 202 212 203 208 200 194 209 223 232 251 250 273 250 229 226 247 289 292 301 313 324 329 330 327 328
192 176 164 163 166 173 176 182 188 188 188 185 170 173 175 173 173 170 176 175 170 173 165 155 164 178 183 197 196 205 204 189 192 189 208 224 240 258 269 268 271 228 215 232 256 271 273 294 308 314 316 318 318 321
158 166 161 162 164 167 164 177 173 167 172 177 180 173 170 175 175 175 178 180 191 183 173 162 169 178 190 199 203 212 208 200 192 205 194 223 254 266 264 281 232 221 239 260 259 277 299 310 312 314 315 318 320 324
165 166 168 172 177 169 158 157 165 158 156 155 156 157 166 173 177 183 188 194 200 191 185 187 185 184 196 203 200 205 211 204 209 190 201 254 264 239 222 223 212 226 249 269 276 289 302 310 313 315 316 319 323 326
145 156 161 161 176 173 150 140 141 140 138 144 152 165 173 173 173 182 175 177 185 192 197 195 196 189 188 191 186 180 185 201 200 198 238 266 268 253 251 236 244 258 265 277 287 294 304 311 316 319 321 325 329 331
161 169 162 160 168 164 157 149 148 151 156 159 163 165 165 166 160 159 158 165 172 189 198 194 196 189 181 184 174 179 174 180 185 207 227 260 272 212 228 227 238 253 271 283 293 302 309 316 321 325 331 336 340 346
153 156 160 166 171 169 161 156 155 152 155 157 156 147 146 146 142 151 171 175 182 182 182 181 182 172 163 163 161 177 184 188 186 196 225 245 188 219 244 263 262 261 277 287 294 305 314 320 328 340 355 5 5 2
155 165 164 168 178 175 162 158 152 151 152 148 138 136 151 146 152 166 175 169 171 164 174 172 171 167 168 160 161 171 192 188 198 217 236 247 251 253 225 270 262 267 274 287 297 303 314 339 9 21 22 14 11 9
144 151 172 176 180 172 161 159 159 161 162 159 143 148 140 156 171 167 158 149 154 164 165 171 173 169 176 177 166 188 207 214 211 230 240 245 244 244 243 261 268 274 282 291 288 289 50 51 53 38 28 22 17 11
152 151 160 166 162 158 158 165 170 175 174 151 141 164 170 165 173 155 158 151 146 163 167 167 177 178 175 174 191 194 200 215 223 234 200 176 203 218 249 268 276 282 287 263 202 173 142 120 100 46 28 15 7 4
161 162 155 162 168 163 171 172 170 172 166 148 146 146 159 168 176 168 166 172 152 157 157 161 178 189 194 203 196 195 203 209 186 89 212 253 287 305 288 284 286 287 260 213 202 182 196 204 71 17 360 356 356 357
173 177 165 165 171 178 180 181 174 177 173 165 145 141 170 176 183 196 196 187 178 167 174 167 179 183 185 209 215 223 231 243 248 283 294 277 268 282 291 291 291 264 224 215 205 215 222 220 314 324 330 339 344 346
165 173 175 181 176 175 175 175 175 181 187 172 162 153 175 183 199 221 218 203 195 189 179 197 186 200 203 219 212 289 250 230 250 273 286 281 268 271 284 286 267 230 222 215 221 230 229 263 289 299 306 317 324 332
153 161 165 176 180 173 165 175 185 181 199 220 217 210 202 205 216 212 203 191 199 204 205 211 219 227 228 234 251 260 259 250 270 281 279 276 284 276 289 273 234 224 224 225 231 235 249 270 279 284 288 297 307 316
155 153 146 148 160 161 156 174 189 173 180 192 211 219 224 230 196 172 171 153 200 208 211 217 222 226 232 273 277 256 249 257 267 275 268 271 273 276 276 250 227 227 232 238 238 243 256 267 273 274 277 283 291 299
155 166 169 160 153 163 138 154 173 190 208 233 222 223 222 229 221 193 163 249 262 242 226 234 241 247 245 250 275 280 240 237 244 256 262 280 288 276 258 235 230 234 240 242 244 250 257 263 269 270 272 277 283 289
153 157 160 164 160 167 176 177 190 218 235 259 254 225 223 228 233 247 267 282 258 235 238 232 248 253 243 248 257 255 248 253 265 269 271 282 289 260 236 229 232 239 245 246 249 254 263 270 272 274 276 278 281 286
152 160 155 151 153 159 166 183 203 224 241 265 252 215 205 210 222 235 252 262 239 223 219 223 227 225 232 241 245 248 253 259 262 263 265 272 274 250 235 236 239 242 249 255 257 260 265 270 274 275 275 277 279 280
146 165 171 164 172 179 199 217 233 242 248 256 251 213 202 204 216 238 251 248 234 232 231 232 234 239 243 243 243 246 250 255 257 257 258 264 267 252 243 241 245 250 253 257 262 265 267 267 269 272 272 272 272 272
140 158 185 199 209 224 233 239 257 254 250 240 234 229 232 235 237 244 249 246 237 233 233 235 241 244 246 247 247 251 256 256 254 253 256 262 268 259 251 250 251 254 260 266 268 266 263 263 264 264 264 265 266 268
159 151 168 190 212 229 234 259 276 256 248 242 240 235 239 237 235 238 245 246 237 233 237 241 249 250 248 248 249 253 257 260 258 256 254 256 260 260 254 251 250 253 257 258 260 262 265 266 266 267 267 266 266 267
201 165 204 204 215 225 254 275 274 274 292 268 246 234 231 235 226 232 229 229 233 240 253 262 262 259 257 257 257 258 260 263 265 263 263 261 264 267 266 259 253 252 256 260 263 268 270 271 271 271 270 270 270 270
212 223 238 220 249 318 300 279 273 297 303 264 244 216 214 215 217 171 151 313 318 312 298 292 296 286 269 264 263 260 261 262 263 266 267 265 266 265 264 263 262 263 264 266 266 266 267 268 269 271 272 273 273 274
239 243 248 253 258 288 293 278 266 290 312 316 287 271 264 271 276 282 286 292 292 290 289 284 283 286 290 292 276 264 261 260 259 261 262 264 265 262 262 262 262 262 261 261 262 264 266 268 271 273 274 274 276 278
262 264 268 272 278 281 277 276 284 292 291 297 288 275 273 272 271 273 277 281 287 287 283 282 284 288 288 289 292 286 270 262 259 259 260 263 267 270 269 270 270 271 272 273 272 272 272 273 274 276 278 279 280 282
266 269 269 273 277 282 279 278 278 277 275 272 264 261 266 274 277 274 273 273 278 282 283 283 285 287 288 286 285 283 280 273 268 266 267 268 271 274 277 279 280 280 278 278 277 275 275 275 276 278 280 283 285 286
259 260 267 271 276 278 273 270 270 264 257 246 246 252 261 267 269 270 273 276 279 281 280 281 281 280 281 280 279 278 277 276 276 276 277 277 278 279 280 280 280 280 279 277 277 276 274 274 277 280 282 284 285 287
266 261 260 260 262 265 271 269 264 257 250 247 249 255 261 263 264 269 276 276 277 277 277 278 279 280 280 281 281 281 281 280 280 280 281 283 284 285 285 282 278 275 276 277 277 275 273 275 278 281 283 286 288 288
Height
2881 2888 2893 2898 2902 2906 2910 2914 2918 2923 2929 2934 2941 2947 2952 2957 2961 2965 2970 2975 2979 2983 2988 2993 2998 3002 3004 3006 3008 3010 3013 3014 3017 3020 3024 3026 3027 3028 3031 3031 3032 3032 3033 3033 3033 3033 3035 3033 3033 3033 3032 3028 3027 3026
2878 2885 2891 2895 2900 2905 2909 2914 2919 2924 2929 2934 2940 2946 2952 2956 2961 2965 2970 2974 2980 2985 2989 2993 2998 3002 3004 3006 3007 3008 3010 3012 3014 3018 3021 3023 3024 3026 3028 3030 3030 3032 3032 3032 3033 3032 3031 3030 3030 3030 3029 3027 3025 3024
2876 2883 2889 2894 2899 2904 2908 2913 2917 2922 2928 2935 2940 2947 2951 2956 2961 2965 2970 2975 2980 2985 2989 2994 2997 3001 3003 3005 3006 3008 3009 3011 3013 3016 3018 3021 3023 3025 3026 3028 3028 3028 3028 3029 3030 3030 3029 3028 3028 3028 3027 3026 3024 3021
2871 2881 2888 2893 2897 2903 2908 2912 2916 2921 2928 2935 2941 2946 2951 2956 2961 2966 2971 2975 2980 2984 2988 2994 2996 3000 3002 3004 3006 3007 3009 3011 3013 3015 3017 3019 3021 3023 3024 3025 3026 3027 3027 3027 3027 3027 3027 3027 3026 3026 3025 3024 3023 3021
2873 2880 2888 2893 2898 2903 2908 2913 2918 2923 2928 2935 2941 2946 2951 2957 2962 2967 2971 2976 2979 2986 2988 2992 2996 2999 3001 3003 3005 3007 3009 3011 3012 3014 3016 3018 3019 3021 3021 3022 3022 3023 3024 3025 3025 3025 3025 3025 3024 3023 3022 3020 3018 3017
2872 2880 2888 2893 2898 2904 2909 2914 2919 2924 2930 2936 2940 2946 2952 2957 2962 2967 2972 2976 2980 2984 2988 2992 2997 2998 3001 3003 3005 3007 3008 3010 3012 3013 3014 3016 3017 3019 3018 3018 3019 3019 3020 3022 3023 3023 3023 3022 3022 3021 3020 3018 3016 3014
2870 2879 2887 2894 2900 2905 2910 2914 2918 2922 2928 2935 2941 2947 2952 2957 2963 2968 2973 2977 2980 2984 2988 2991 2995 2998 3000 3002 3004 3006 3007 3008 3010 3012 3013 3014 3016 3017 3015 3015 3016 3017 3018 3020 3020 3020 3021 3020 3020 3019 3017 3015 3013 3011
2871 2879 2888 2894 2901 2907 2911 2915 2918 2922 2927 2933 2941 2947 2952 2958 2963 2968 2972 2976 2980 2984 2987 2990 2994 2998 2999 3001 3004 3005 3006 3007 3009 3011 3012 3013 3014 3014 3012 3012 3012 3014 3015 3017 3018 3018 3018 3018 3017 3015 3013 3012 3010 3008
2872 2882 2889 2896 2902 2909 2913 2917 2921 2925 2930 2935 2941 2947 2952 2958 2963 2967 2972 2976 2980 2985 2985 2988 2990 2994 2998 3000 3002 3005 3006 3007 3009 3009 3010 3012 3011 3011 3011 3011 3012 3013 3014 3015 3016 3016 3015 3014 3013 3011 3009 3008 3006 3004
2875 2883 2891 2897 2903 2911 2916 2921 2926 2930 2934 2938 2944 2949 2954 2958 2963 2967 2972 2975 2978 2980 2983 2986 2988 2991 2996 2999 3002 3005 3005 3006 3007 3009 3009 3008 3008 3008 3008 3009 3010 3011 3012 3013 3013 3013 3012 3010 3009 3008 3007 3005 3004 3002
2879 2886 2892 2898 2905 2913 2919 2924 2928 2933 2937 2941 2945 2950 2953 2958 2963 2967 2970 2974 2976 2979 2981 2984 2988 2991 2995 2999 3001 3004 3004 3005 3006 3008 3008 3007 3005 3006 3007 3007 3008 3009 3009 3010 3010 3010 3009 3008 3007 3005 3004 3002 3001 2999
2881 2888 2894 2901 2908 2915 2922 2928 2932 2936 2941 2944 2947 2950 2955 2960 2964 2968 2970 2973 2974 2976 2978 2983 2987 2991 2994 2997 3000 3003 3003 3005 3006 3006 3007 3004 3004 3004 3005 3006 3006 3007 3007 3007 3007 3007 3006 3005 3004 3003 3002 3000 2999 2997
2885 2892 2898 2904 2911 2918 2924 2931 2935 2939 2943 2947 2950 2954 2958 2961 2963 2965 2966 2969 2971 2972 2976 2981 2985 2990 2994 2997 2999 3001 3001 3003 3004 3004 3002 3001 3002 3002 3003 3004 3004 3004 3005 3005 3005 3004 3004 3003 3003 3002 3001 3000 2998 2996
2888 2894 2901 2906 2912 2918 2924 2931 2936 2940 2945 2948 2951 2954 2957 2959 2961 2962 2965 2967 2970 2973 2976 2981 2985 2989 2993 2996 2998 2999 3001 3002 3001 3000 2998 2999 3000 3000 3001 3002 3002 3002 3003 3002 3002 3002 3002 3002 3002 3001 3001 2999 2997 2995
2893 2898 2903 2909 2915 2921 2927 2932 2937 2942 2945 2950 2953 2954 2957 2959 2960 2962 2966 2969 2971 2973 2976 2981 2986 2990 2992 2995 2996 2997 2998 2998 2997 2997 2997 2997 2998 2999 2999 3000 3000 3000 3000 3000 3001 3001 3001 3001 3001 3000 2999 2998 2996 2995
2896 2901 2906 2911 2917 2924 2930 2934 2938 2943 2947 2951 2953 2955 2957 2960 2961 2964 2967 2969 2972 2975 2978 2982 2986 2989 2990 2992 2992 2993 2994 2994 2995 2995 2996 2996 2997 2997 2997 2997 2998 2998 2998 2998 2999 2999 3000 3000 2999 2998 2997 2996 2995 2993
2898 2903 2907 2914 2919 2925 2931 2937 2941 2945 2950 2952 2954 2956 2958 2961 2962 2964 2966 2969 2972 2975 2978 2981 2983 2985 2987 2988 2989 2988 2989 2993 2993 2993 2994 2994 2994 2995 2995 2995 2995 2995 2996 2997 2997 2997 2997 2997 2996 2996 2995 2994 2993 2991
2901 2906 2912 2917 2922 2927 2932 2938 2943 2946 2949 2952 2956 2958 2959 2961 2962 2963 2965 2967 2971 2974 2977 2980 2981 2982 2983 2984 2985 2987 2987 2989 2990 2991 2991 2991 2991 2992 2992 2992 2992 2993 2994 2994 2994 2995 2994 2994 2994 2994 2993 2992 2991 2989
2906 2910 2915 2920 2924 2928 2933 2939 2944 2946 2950 2953 2956 2958 2960 2961 2962 2963 2964 2966 2968 2971 2974 2976 2977 2978 2980 2982 2985 2986 2986 2987 2988 2988 2988 2988 2988 2988 2989 2988 2989 2990 2990 2990 2991 2991 2991 2991 2991 2990 2990 2989 2988 2986
2907 2911 2917 2921 2926 2930 2935 2941 2945 2949 2951 2953 2953 2955 2957 2960 2962 2962 2964 2965 2967 2969 2971 2971 2973 2976 2979 2981 2981 2981 2982 2983 2984 2984 2985 2985 2985 2985 2985 2985 2986 2986 2987 2987 2988 2988 2988 2988 2987 2987 2986 2985 2984 2983
2911 2914 2920 2924 2929 2934 2938 2941 2945 2948 2950 2951 2952 2953 2954 2957 2959 2960 2962 2963 2965 2966 2968 2969 2972 2974 2975 2977 2978 2978 2978 2979 2980 2980 2980 2981 2981 2980 2980 2981 2982 2983 2983 2983 2984 2984 2984 2983 2983 2983 2982 2981 2980 2979
2917 2920 2924 2928 2932 2936 2940 2942 2944 2946 2949 2949 2950 2950 2952 2954 2956 2959 2960 2961 2961 2962 2963 2965 2966 2967 2969 2971 2973 2974 2975 2975 2975 2976 2976 2976 2975 2975 2975 2977 2978 2979 2979 2979 2979 2979 2979 2979 2979 2978 2977 2976 2975 2974
2921 2924 2928 2931 2935 2937 2940 2941 2944 2945 2947 2947 2947 2947 2949 2951 2954 2957 2957 2957 2957 2958 2959 2960 2961 2962 2963 2965 2966 2968 2968 2969 2969 2970 2970 2971 2970 2970 2971 2972 2973 2973 2974 2975 2975 2974 2974 2974 2974 2973 2972 2971 2970 2969
2924 2927 2930 2933 2936 2938 2940 2942 2943 2944 2944 2945 2945 2946 2947 2949 2951 2952 2952 2952 2953 2953 2955 2955 2956 2957 2958 2959 2960 2961 2961 2962 2963 2964 2964 2965 2965 2966 2966 2967 2968 2968 2969 2968 2969 2969 2968 2968 2967 2967 2966 2965 2964 2963
2929 2931 2934 2934 2936 2938 2939 2940 2941 2941 2942 2943 2943 2943 2944 2945 2946 2946 2946 2946 2947 2948 2949 2950 2951 2952 2953 2954 2955 2955 2955 2956 2957 2958 2959 2959 2960 2960 2961 2962 2962 2962 2962 2963 2963 2962 2961 2961 2960 2959 2958 2957 2956 2955
2928 2930 2932 2933 2935 2937 2938 2938 2938 2938 2939 2939 2940 2940 2941 2941 2942 2941 2941 2942 2942 2943 2944 2945 2945 2946 2946 2947 2948 2949 2950 2950 2951 2951 2952 2952 2953 2953 2954 2954 2955 2955 2955 2956 2955 2955 2954 2953 2953 2952 2951 2950 2949 2947
2928 2929 2931 2932 2933 2935 2935 2935 2936 2936 2936 2936 2936 2937 2938 2938 2937 2938 2938 2939 2939 2940 2940 2940 2941 2941 2941 2942 2943 2943 2944 2944 2945 2945 2946 2946 2947 2947 2947 2947 2947 2946 2946 2946 2946 2947 2946 2945 2945 2944 2943 2942 2941 2939
2928 2929 2930 2932 2932 2933 2933 2933 2934 2934 2934 2934 2935 2935 2935 2935 2936 2936 2936 2937 2937 2937 2937 2937 2937 2936 2936 2936 2936 2936 2937 2937 2938 2939 2939 2939 2939 2939 2939 2939 2939 2939 2939 2939 2939 2938 2937 2936 2936 2935 2934 2933 2932 2931
2926 2928 2929 2929 2930 2930 2931 2931 2931 2932 2933 2932 2933 2933 2933 2933 2933 2933 2933 2933 2933 2933 2933 2933 2933 2932 2931 2930 2930 2929 2929 2930 2930 2931 2931 2931 2931 2931 2930 2930 2930 2929 2929 2929 2929 2928 2928 2928 2927 2926 2926 2925 2924 2923
2923 2925 2925 2925 2926 2926 2927 2928 2927 2928 2928 2929 2929 2928 2929 2929 2929 2929 2929 2929 2929 2928 2928 2927 2927 2926 2926 2926 2925 2924 2924 2923 2923 2924 2923 2923 2923 2923 2923 2923 2922 2922 2922 2921 2921 2920 2920 2919 2918 2918 2917 2916 2915 2914
2918 2919 2919 2920 2920 2920 2921 2921 2920 2920 2921 2921 2922 2923 2923 2923 2923 2923 2923 2923 2923 2923 2922 2922 2921 2921 2920 2920 2920 2919 2919 2918 2917 2917 2916 2916 2916 2916 2915 2915 2914 2914 2913 2913 2912 2912 2911 2910 2910 2909 2908 2907 2906 2905
2913 2913 2914 2914 2914 2914 2914 2914 2913 2913 2913 2914 2915 2917 2917 2917 2917 2917 2917 2917 2917 2916 2916 2916 2915 2915 2915 2914 2914 2913 2913 2912 2912 2911 2910 2910 2909 2908 2907 2907 2906 2905 2904 2903 2903 2902 2902 2902 2901 2901 2900 2899 2898 2897
2908 2908 2908 2908 2908 2908 2909 2909 2908 2908 2908 2909 2910 2911 2911 2911 2910 2911 2911 2911 2911 2910 2910 2910 2909 2909 2908 2908 2908 2907 2907 2906 2905 2904 2903 2902 2901 2900 2899 2897 2897 2896 2896 2895 2895 2894 2894 2894 2894 2894 2893 2892 2891 2889